iso_date,epoch_date,Year,Hour,Min,DOY,POS_DOY,Lat,Lon,BP,Ts,Ta,has_bp,has_ts,has_ta,BuoyID,Buoy_Type,Buoy_Owner,Logistics,Hemisphere
2017-08-20T13:19:12Z,1503235152,2017,13,0,232.555,232.555,70.98299,-161.92874,1013.3,-999.00,-999.0,yes,yes,no,300234065718420,UPTEMPO,PSC-UPTEMPO,Sikuliaq,North
2017-08-20T13:20:38Z,1503235238,2017,13,20,232.556,232.556,70.98299,-161.92874,1013.3,7.13,-999.0,yes,yes,no,300234065718420,UPTEMPO,PSC-UPTEMPO,Sikuliaq,North
2017-08-20T13:29:16Z,1503235757,2017,13,30,232.562,232.562,70.97302,-161.90062,1013.3,7.11,-999.0,yes,yes,no,300234065718420,UPTEMPO,PSC-UPTEMPO,Sikuliaq,North
2017-08-20T13:39:21Z,1503236362,2017,13,40,232.569,232.569,70.97311,-161.90039,1013.3,7.28,-999.0,yes,yes,no,300234065718420,UPTEMPO,PSC-UPTEMPO,Sikuliaq,North
2017-08-20T13:40:48Z,1503236448,2017,13,0,232.57,232.57,70.97311,-161.90039,1013.3,-999.00,-999.0,yes,yes,no,300234065718420,UPTEMPO,PSC-UPTEMPO,Sikuliaq,North
2017-08-20T13:49:26Z,1503236966,2017,13,50,232.576,232.576,70.9733,-161.8996,1013.4,7.39,-999.0,yes,yes,no,300234065718420,UPTEMPO,PSC-UPTEMPO,Sikuliaq,North
2017-08-20T13:59:31Z,1503237571,2017,14,0,232.583,232.583,70.97304,-161.90128,1013.3,7.4,-999.0,yes,yes,no,300234065718420,UPTEMPO,PSC-UPTEMPO,Sikuliaq,North
2017-08-20T14:09:36Z,1503238176,2017,14,10,232.59,232.59,70.97319,-161.901,1013.4,7.49,-999.0,yes,yes,no,300234065718420,UPTEMPO,PSC-UPTEMPO,Sikuliaq,North
2017-08-20T14:19:40Z,1503238781,2017,14,20,232.597,232.597,70.97293,-161.89906,1013.8,7.57,-999.0,yes,yes,no,300234065718420,UPTEMPO,PSC-UPTEMPO,Sikuliaq,North
2017-08-20T14:29:45Z,1503239386,2017,14,30,232.604,232.604,70.97327,-161.89644,1013.7,7.55,-999.0,yes,yes,no,300234065718420,UPTEMPO,PSC-UPTEMPO,Sikuliaq,North
2017-08-20T14:39:50Z,1503239990,2017,14,40,232.611,232.611,70.97332,-161.89407,1013.6,7.59,-999.0,yes,yes,no,300234065718420,UPTEMPO,PSC-UPTEMPO,Sikuliaq,North
2017-08-20T14:49:55Z,1503240595,2017,14,50,232.618,232.618,70.97377,-161.89107,1013.6,7.58,-999.0,yes,yes,no,300234065718420,UPTEMPO,PSC-UPTEMPO,Sikuliaq,North
2017-08-20T15:00:00Z,1503241200,2017,15,0,232.625,232.625,70.97417,-161.88809,1013.6,7.59,-999.0,yes,yes,no,300234065718420,UPTEMPO,PSC-UPTEMPO,Sikuliaq,North
2017-08-20T15:10:04Z,1503241805,2017,15,10,232.632,232.632,70.97456,-161.88528,1013.6,7.59,-999.0,yes,yes,no,300234065718420,UPTEMPO,PSC-UPTEMPO,Sikuliaq,North
2017-08-20T15:20:09Z,1503242410,2017,15,20,232.639,232.639,70.97474,-161.88258,1013.6,7.6,-999.0,yes,yes,no,300234065718420,UPTEMPO,PSC-UPTEMPO,Sikuliaq,North
2017-08-20T15:30:14Z,1503243014,2017,15,30,232.646,232.646,70.97523,-161.8799,1013.6,7.6,-999.0,yes,yes,no,300234065718420,UPTEMPO,PSC-UPTEMPO,Sikuliaq,North
2017-08-20T15:40:19Z,1503243619,2017,15,40,232.653,232.653,70.97556,-161.87761,1013.6,7.59,-999.0,yes,yes,no,300234065718420,UPTEMPO,PSC-UPTEMPO,Sikuliaq,North
2017-08-20T15:50:24Z,1503244224,2017,15,50,232.66,232.66,70.97587,-161.87512,1013.7,7.59,-999.0,yes,yes,no,300234065718420,UPTEMPO,PSC-UPTEMPO,Sikuliaq,North
2017-08-20T16:00:28Z,1503244829,2017,16,0,232.667,232.667,70.97627,-161.87242,1013.6,7.58,-999.0,yes,yes,no,300234065718420,UPTEMPO,PSC-UPTEMPO,Sikuliaq,North
2017-08-20T16:10:33Z,1503245434,2017,16,10,232.674,232.674,70.97651,-161.86995,1013.7,7.58,-999.0,yes,yes,no,300234065718420,UPTEMPO,PSC-UPTEMPO,Sikuliaq,North
2017-08-20T16:19:12Z,1503245952,2017,16,0,232.68,232.68,70.97673,-161.86748,1013.7,-999.00,-999.0,yes,yes,no,300234065718420,UPTEMPO,PSC-UPTEMPO,Sikuliaq,North
2017-08-20T16:20:38Z,1503246038,2017,16,20,232.681,232.681,70.97673,-161.86748,1013.7,7.57,-999.0,yes,yes,no,300234065718420,UPTEMPO,PSC-UPTEMPO,Sikuliaq,North
2017-08-20T16:30:43Z,1503246643,2017,16,30,232.688,232.688,70.97697,-161.86502,1013.7,7.57,-999.0,yes,yes,no,300234065718420,UPTEMPO,PSC-UPTEMPO,Sikuliaq,North
2017-08-20T16:39:21Z,1503247162,2017,16,40,232.694,232.694,70.97716,-161.86247,1013.8,7.56,-999.0,yes,yes,no,300234065718420,UPTEMPO,PSC-UPTEMPO,Sikuliaq,North
2017-08-20T16:40:48Z,1503247248,2017,16,0,232.695,232.695,70.97716,-161.86247,1013.8,-999.00,-999.0,yes,yes,no,300234065718420,UPTEMPO,PSC-UPTEMPO,Sikuliaq,North
2017-08-20T16:49:26Z,1503247766,2017,16,50,232.701,232.701,70.97733,-161.85997,1013.8,7.56,-999.0,yes,yes,no,300234065718420,UPTEMPO,PSC-UPTEMPO,Sikuliaq,North
2017-08-20T16:59:31Z,1503248371,2017,17,0,232.708,232.708,70.97746,-161.85742,1013.9,7.55,-999.0,yes,yes,no,300234065718420,UPTEMPO,PSC-UPTEMPO,Sikuliaq,North
2017-08-20T17:09:36Z,1503248976,2017,17,10,232.715,232.715,70.97754,-161.85487,1013.8,7.55,-999.0,yes,yes,no,300234065718420,UPTEMPO,PSC-UPTEMPO,Sikuliaq,North
2017-08-20T17:19:40Z,1503249581,2017,17,20,232.722,232.722,70.9776,-161.85234,1013.8,7.54,-999.0,yes,yes,no,300234065718420,UPTEMPO,PSC-UPTEMPO,Sikuliaq,North
2017-08-20T17:29:45Z,1503250186,2017,17,30,232.729,232.729,70.97769,-161.84984,1013.8,7.54,-999.0,yes,yes,no,300234065718420,UPTEMPO,PSC-UPTEMPO,Sikuliaq,North
2017-08-20T18:00:00Z,1503252000,2017,18,0,232.75,232.75,70.97778,-161.8427,1013.9,7.53,-999.0,yes,yes,no,300234065718420,UPTEMPO,PSC-UPTEMPO,Sikuliaq,North
2017-08-20T19:00:28Z,1503255629,2017,19,0,232.792,232.792,70.97778,-161.83067,1013.8,7.49,-999.0,yes,yes,no,300234065718420,UPTEMPO,PSC-UPTEMPO,Sikuliaq,North
2017-08-20T19:59:31Z,1503259171,2017,20,0,232.833,232.833,70.97777,-161.82095,1013.8,7.45,-999.0,yes,yes,no,300234065718420,UPTEMPO,PSC-UPTEMPO,Sikuliaq,North
2017-08-20T21:00:00Z,1503262800,2017,21,0,232.875,232.875,70.97805,-161.81412,1014.0,7.46,-999.0,yes,yes,no,300234065718420,UPTEMPO,PSC-UPTEMPO,Sikuliaq,North
2017-08-20T22:00:28Z,1503266429,2017,22,0,232.917,232.917,70.97835,-161.80815,1014.0,7.46,-999.0,yes,yes,no,300234065718420,UPTEMPO,PSC-UPTEMPO,Sikuliaq,North
2017-08-20T22:59:31Z,1503269971,2017,23,0,232.958,232.958,70.97923,-161.80331,1013.7,7.46,-999.0,yes,yes,no,300234065718420,UPTEMPO,PSC-UPTEMPO,Sikuliaq,North
2017-08-21T00:00:00Z,1503273600,2017,0,0,233.0,233.0,70.98053,-161.79819,1013.6,7.47,-999.0,yes,yes,no,300234065718420,UPTEMPO,PSC-UPTEMPO,Sikuliaq,North
2017-08-21T01:00:28Z,1503277229,2017,1,0,233.042,233.042,70.98217,-161.79216,1013.4,7.47,-999.0,yes,yes,no,300234065718420,UPTEMPO,PSC-UPTEMPO,Sikuliaq,North
2017-08-21T01:59:31Z,1503280771,2017,2,0,233.083,233.083,70.98393,-161.78502,1013.3,7.42,-999.0,yes,yes,no,300234065718420,UPTEMPO,PSC-UPTEMPO,Sikuliaq,North
2017-08-21T03:00:00Z,1503284400,2017,3,0,233.125,233.125,70.98594,-161.77528,1013.3,7.39,-999.0,yes,yes,no,300234065718420,UPTEMPO,PSC-UPTEMPO,Sikuliaq,North
2017-08-21T04:00:28Z,1503288029,2017,4,0,233.167,233.167,70.98729,-161.76442,1012.9,7.36,-999.0,yes,yes,no,300234065718420,UPTEMPO,PSC-UPTEMPO,Sikuliaq,North
2017-08-21T04:59:31Z,1503291571,2017,5,0,233.208,233.208,70.98817,-161.75378,1012.7,7.43,-999.0,yes,yes,no,300234065718420,UPTEMPO,PSC-UPTEMPO,Sikuliaq,North
2017-08-21T06:00:00Z,1503295200,2017,6,0,233.25,233.25,70.9889,-161.74515,1012.6,7.4,-999.0,yes,yes,no,300234065718420,UPTEMPO,PSC-UPTEMPO,Sikuliaq,North
2017-08-21T07:00:28Z,1503298829,2017,7,0,233.292,233.292,70.98973,-161.73782,1012.6,7.4,-999.0,yes,yes,no,300234065718420,UPTEMPO,PSC-UPTEMPO,Sikuliaq,North
2017-08-21T07:59:31Z,1503302371,2017,8,0,233.333,233.333,70.99073,-161.73178,1012.6,7.38,-999.0,yes,yes,no,300234065718420,UPTEMPO,PSC-UPTEMPO,Sikuliaq,North
2017-08-21T09:00:00Z,1503306000,2017,9,0,233.375,233.375,70.99184,-161.7267,1012.4,7.35,-999.0,yes,yes,no,300234065718420,UPTEMPO,PSC-UPTEMPO,Sikuliaq,North
2017-08-21T10:00:28Z,1503309629,2017,10,0,233.417,233.417,70.99316,-161.72247,1012.2,7.29,-999.0,yes,yes,no,300234065718420,UPTEMPO,PSC-UPTEMPO,Sikuliaq,North
2017-08-21T10:59:31Z,1503313171,2017,11,0,233.458,233.458,70.99496,-161.71983,1011.8,7.18,-999.0,yes,yes,no,300234065718420,UPTEMPO,PSC-UPTEMPO,Sikuliaq,North
2017-08-21T12:00:00Z,1503316800,2017,12,0,233.5,233.5,70.99748,-161.71703,1011.4,7.11,-999.0,yes,yes,no,300234065718420,UPTEMPO,PSC-UPTEMPO,Sikuliaq,North
2017-08-21T13:00:28Z,1503320429,2017,13,0,233.542,233.542,71.00066,-161.71231,1011.2,7.05,-999.0,yes,yes,no,300234065718420,UPTEMPO,PSC-UPTEMPO,Sikuliaq,North
2017-08-21T13:59:31Z,1503323971,2017,14,0,233.583,233.583,71.00499,-161.70422,1011.1,6.97,-999.0,yes,yes,no,300234065718420,UPTEMPO,PSC-UPTEMPO,Sikuliaq,North
2017-08-21T15:00:00Z,1503327600,2017,15,0,233.625,233.625,71.0099,-161.69348,1011.0,6.91,-999.0,yes,yes,no,300234065718420,UPTEMPO,PSC-UPTEMPO,Sikuliaq,North
2017-08-21T16:00:28Z,1503331229,2017,16,0,233.667,233.667,71.01521,-161.68196,1010.6,6.84,-999.0,yes,yes,no,300234065718420,UPTEMPO,PSC-UPTEMPO,Sikuliaq,North
2017-08-21T16:59:31Z,1503334771,2017,17,0,233.708,233.708,71.02068,-161.67018,1010.4,6.76,-999.0,yes,yes,no,300234065718420,UPTEMPO,PSC-UPTEMPO,Sikuliaq,North
2017-08-21T18:00:00Z,1503338400,2017,18,0,233.75,233.75,71.02526,-161.65825,1010.2,6.86,-999.0,yes,yes,no,300234065718420,UPTEMPO,PSC-UPTEMPO,Sikuliaq,North
2017-08-21T19:00:28Z,1503342029,2017,19,0,233.792,233.792,71.02924,-161.64764,1010.2,6.76,-999.0,yes,yes,no,300234065718420,UPTEMPO,PSC-UPTEMPO,Sikuliaq,North
2017-08-21T19:59:31Z,1503345571,2017,20,0,233.833,233.833,71.03276,-161.63838,1010.2,6.78,-999.0,yes,yes,no,300234065718420,UPTEMPO,PSC-UPTEMPO,Sikuliaq,North
2017-08-21T21:00:00Z,1503349200,2017,21,0,233.875,233.875,71.03606,-161.63086,1010.1,6.8,-999.0,yes,yes,no,300234065718420,UPTEMPO,PSC-UPTEMPO,Sikuliaq,North
2017-08-21T22:00:28Z,1503352829,2017,22,0,233.917,233.917,71.03925,-161.62488,1010.2,6.83,-999.0,yes,yes,no,300234065718420,UPTEMPO,PSC-UPTEMPO,Sikuliaq,North
2017-08-21T22:59:31Z,1503356371,2017,23,0,233.958,233.958,71.04184,-161.61881,1010.0,6.88,-999.0,yes,yes,no,300234065718420,UPTEMPO,PSC-UPTEMPO,Sikuliaq,North
2017-08-22T00:00:00Z,1503360000,2017,0,0,234.0,234.0,71.04404,-161.6122,1010.0,6.99,-999.0,yes,yes,no,300234065718420,UPTEMPO,PSC-UPTEMPO,Sikuliaq,North
2017-08-22T01:00:28Z,1503363629,2017,1,0,234.042,234.042,71.04606,-161.60585,1009.8,7.04,-999.0,yes,yes,no,300234065718420,UPTEMPO,PSC-UPTEMPO,Sikuliaq,North
2017-08-22T01:59:31Z,1503367171,2017,2,0,234.083,234.083,71.04804,-161.59975,1009.5,7.11,-999.0,yes,yes,no,300234065718420,UPTEMPO,PSC-UPTEMPO,Sikuliaq,North
2017-08-22T03:00:00Z,1503370800,2017,3,0,234.125,234.125,71.05001,-161.59286,1009.3,7.16,-999.0,yes,yes,no,300234065718420,UPTEMPO,PSC-UPTEMPO,Sikuliaq,North
2017-08-22T04:00:28Z,1503374429,2017,4,0,234.167,234.167,71.05126,-161.58818,1009.0,7.2,-999.0,yes,yes,no,300234065718420,UPTEMPO,PSC-UPTEMPO,Sikuliaq,North
2017-08-22T04:59:31Z,1503377971,2017,5,0,234.208,234.208,71.05218,-161.58256,1008.8,7.22,-999.0,yes,yes,no,300234065718420,UPTEMPO,PSC-UPTEMPO,Sikuliaq,North
2017-08-22T06:00:00Z,1503381600,2017,6,0,234.25,234.25,71.05281,-161.57645,1008.7,7.22,-999.0,yes,yes,no,300234065718420,UPTEMPO,PSC-UPTEMPO,Sikuliaq,North
2017-08-22T07:00:28Z,1503385229,2017,7,0,234.292,234.292,71.05258,-161.57161,1008.4,7.17,-999.0,yes,yes,no,300234065718420,UPTEMPO,PSC-UPTEMPO,Sikuliaq,North
2017-08-22T07:59:31Z,1503388771,2017,8,0,234.333,234.333,71.05213,-161.56766,1008.2,7.14,-999.0,yes,yes,no,300234065718420,UPTEMPO,PSC-UPTEMPO,Sikuliaq,North
2017-08-22T09:00:00Z,1503392400,2017,9,0,234.375,234.375,71.05119,-161.56551,1008.0,7.09,-999.0,yes,yes,no,300234065718420,UPTEMPO,PSC-UPTEMPO,Sikuliaq,North
2017-08-22T10:00:28Z,1503396029,2017,10,0,234.417,234.417,71.04965,-161.56601,1007.9,7.01,-999.0,yes,yes,no,300234065718420,UPTEMPO,PSC-UPTEMPO,Sikuliaq,North
2017-08-22T10:59:31Z,1503399571,2017,11,0,234.458,234.458,71.04797,-161.56741,1007.7,6.91,-999.0,yes,yes,no,300234065718420,UPTEMPO,PSC-UPTEMPO,Sikuliaq,North
2017-08-22T12:00:00Z,1503403200,2017,12,0,234.5,234.5,71.04629,-161.56941,1007.5,6.89,-999.0,yes,yes,no,300234065718420,UPTEMPO,PSC-UPTEMPO,Sikuliaq,North
2017-08-22T13:00:28Z,1503406829,2017,13,0,234.542,234.542,71.04475,-161.57056,1007.4,6.88,-999.0,yes,yes,no,300234065718420,UPTEMPO,PSC-UPTEMPO,Sikuliaq,North
2017-08-22T13:59:31Z,1503410371,2017,14,0,234.583,234.583,71.04359,-161.57112,1007.2,6.79,-999.0,yes,yes,no,300234065718420,UPTEMPO,PSC-UPTEMPO,Sikuliaq,North
2017-08-22T15:00:00Z,1503414000,2017,15,0,234.625,234.625,71.04237,-161.57047,1007.3,6.67,-999.0,yes,yes,no,300234065718420,UPTEMPO,PSC-UPTEMPO,Sikuliaq,North
2017-08-22T16:00:28Z,1503417629,2017,16,0,234.667,234.667,71.04083,-161.56853,1007.3,6.5,-999.0,yes,yes,no,300234065718420,UPTEMPO,PSC-UPTEMPO,Sikuliaq,North
2017-08-22T16:59:31Z,1503421171,2017,17,0,234.708,234.708,71.03861,-161.56523,1007.2,6.38,-999.0,yes,yes,no,300234065718420,UPTEMPO,PSC-UPTEMPO,Sikuliaq,North
2017-08-22T18:00:00Z,1503424800,2017,18,0,234.75,234.75,71.03587,-161.56134,1007.1,6.32,-999.0,yes,yes,no,300234065718420,UPTEMPO,PSC-UPTEMPO,Sikuliaq,North
2017-08-22T19:00:28Z,1503428429,2017,19,0,234.792,234.792,71.03301,-161.55759,1007.2,6.29,-999.0,yes,yes,no,300234065718420,UPTEMPO,PSC-UPTEMPO,Sikuliaq,North
2017-08-22T19:59:31Z,1503431971,2017,20,0,234.833,234.833,71.02982,-161.55429,1007.1,6.31,-999.0,yes,yes,no,300234065718420,UPTEMPO,PSC-UPTEMPO,Sikuliaq,North
2017-08-22T21:00:00Z,1503435600,2017,21,0,234.875,234.875,71.02635,-161.55241,1007.2,6.31,-999.0,yes,yes,no,300234065718420,UPTEMPO,PSC-UPTEMPO,Sikuliaq,North
2017-08-22T22:00:28Z,1503439229,2017,22,0,234.917,234.917,71.02307,-161.55379,1007.0,6.32,-999.0,yes,yes,no,300234065718420,UPTEMPO,PSC-UPTEMPO,Sikuliaq,North
2017-08-22T22:59:31Z,1503442771,2017,23,0,234.958,234.958,71.0202,-161.5587,1007.0,6.34,-999.0,yes,yes,no,300234065718420,UPTEMPO,PSC-UPTEMPO,Sikuliaq,North
2017-08-23T00:00:00Z,1503446400,2017,0,0,235.0,235.0,71.01736,-161.56549,1006.9,6.34,-999.0,yes,yes,no,300234065718420,UPTEMPO,PSC-UPTEMPO,Sikuliaq,North
2017-08-23T01:00:28Z,1503450029,2017,1,0,235.042,235.042,71.01425,-161.57278,1007.0,6.31,-999.0,yes,yes,no,300234065718420,UPTEMPO,PSC-UPTEMPO,Sikuliaq,North
2017-08-23T01:59:31Z,1503453571,2017,2,0,235.083,235.083,71.01154,-161.58023,1006.6,6.3,-999.0,yes,yes,no,300234065718420,UPTEMPO,PSC-UPTEMPO,Sikuliaq,North
2017-08-23T03:00:00Z,1503457200,2017,3,0,235.125,235.125,71.00921,-161.58766,1006.4,6.32,-999.0,yes,yes,no,300234065718420,UPTEMPO,PSC-UPTEMPO,Sikuliaq,North
2017-08-23T04:00:28Z,1503460829,2017,4,0,235.167,235.167,71.00709,-161.59709,1006.5,6.35,-999.0,yes,yes,no,300234065718420,UPTEMPO,PSC-UPTEMPO,Sikuliaq,North
2017-08-23T04:59:31Z,1503464371,2017,5,0,235.208,235.208,71.00496,-161.60652,1006.7,6.37,-999.0,yes,yes,no,300234065718420,UPTEMPO,PSC-UPTEMPO,Sikuliaq,North
2017-08-23T06:00:00Z,1503468000,2017,6,0,235.25,235.25,71.00271,-161.61719,1006.4,6.4,-999.0,yes,yes,no,300234065718420,UPTEMPO,PSC-UPTEMPO,Sikuliaq,North
2017-08-23T07:00:28Z,1503471629,2017,7,0,235.292,235.292,70.99991,-161.62746,1006.6,6.47,-999.0,yes,yes,no,300234065718420,UPTEMPO,PSC-UPTEMPO,Sikuliaq,North
2017-08-23T07:59:31Z,1503475171,2017,8,0,235.333,235.333,70.99662,-161.63408,1006.4,6.76,-999.0,yes,yes,no,300234065718420,UPTEMPO,PSC-UPTEMPO,Sikuliaq,North
2017-08-23T09:00:00Z,1503478800,2017,9,0,235.375,235.375,70.99247,-161.63917,1006.4,6.87,-999.0,yes,yes,no,300234065718420,UPTEMPO,PSC-UPTEMPO,Sikuliaq,North
2017-08-23T10:00:28Z,1503482429,2017,10,0,235.417,235.417,70.98785,-161.6431,1006.2,6.77,-999.0,yes,yes,no,300234065718420,UPTEMPO,PSC-UPTEMPO,Sikuliaq,North
2017-08-23T10:59:31Z,1503485971,2017,11,0,235.458,235.458,70.98303,-161.64703,1006.2,6.76,-999.0,yes,yes,no,300234065718420,UPTEMPO,PSC-UPTEMPO,Sikuliaq,North
2017-08-23T12:00:00Z,1503489600,2017,12,0,235.5,235.5,70.97844,-161.6515,1006.2,6.79,-999.0,yes,yes,no,300234065718420,UPTEMPO,PSC-UPTEMPO,Sikuliaq,North
2017-08-23T13:00:28Z,1503493229,2017,13,0,235.542,235.542,70.97339,-161.65662,1006.1,6.77,-999.0,yes,yes,no,300234065718420,UPTEMPO,PSC-UPTEMPO,Sikuliaq,North
2017-08-23T13:59:31Z,1503496771,2017,14,0,235.583,235.583,70.96822,-161.66126,1006.0,6.75,-999.0,yes,yes,no,300234065718420,UPTEMPO,PSC-UPTEMPO,Sikuliaq,North
2017-08-23T15:00:00Z,1503500400,2017,15,0,235.625,235.625,70.96344,-161.66385,1005.9,6.73,-999.0,yes,yes,no,300234065718420,UPTEMPO,PSC-UPTEMPO,Sikuliaq,North
2017-08-23T16:00:28Z,1503504029,2017,16,0,235.667,235.667,70.95905,-161.66371,1005.8,6.71,-999.0,yes,yes,no,300234065718420,UPTEMPO,PSC-UPTEMPO,Sikuliaq,North
2017-08-23T16:59:31Z,1503507571,2017,17,0,235.708,235.708,70.95455,-161.65955,1006.0,6.67,-999.0,yes,yes,no,300234065718420,UPTEMPO,PSC-UPTEMPO,Sikuliaq,North
2017-08-23T18:00:00Z,1503511200,2017,18,0,235.75,235.75,70.95026,-161.65234,1006.0,6.59,-999.0,yes,yes,no,300234065718420,UPTEMPO,PSC-UPTEMPO,Sikuliaq,North
2017-08-23T19:00:28Z,1503514829,2017,19,0,235.792,235.792,70.94575,-161.64214,1006.1,6.53,-999.0,yes,yes,no,300234065718420,UPTEMPO,PSC-UPTEMPO,Sikuliaq,North
2017-08-23T19:59:31Z,1503518371,2017,20,0,235.833,235.833,70.94113,-161.63271,1006.1,6.43,-999.0,yes,yes,no,300234065718420,UPTEMPO,PSC-UPTEMPO,Sikuliaq,North
2017-08-23T21:00:00Z,1503522000,2017,21,0,235.875,235.875,70.93652,-161.62543,1006.1,6.34,-999.0,yes,yes,no,300234065718420,UPTEMPO,PSC-UPTEMPO,Sikuliaq,North
2017-08-23T22:00:28Z,1503525629,2017,22,0,235.917,235.917,70.93263,-161.61862,1006.2,6.78,-999.0,yes,yes,no,300234065718420,UPTEMPO,PSC-UPTEMPO,Sikuliaq,North
2017-08-23T22:59:31Z,1503529171,2017,23,0,235.958,235.958,70.92877,-161.61061,1006.2,6.97,-999.0,yes,yes,no,300234065718420,UPTEMPO,PSC-UPTEMPO,Sikuliaq,North
2017-08-24T00:00:00Z,1503532800,2017,0,0,236.0,236.0,70.92495,-161.60649,1006.4,7.02,-999.0,yes,yes,no,300234065718420,UPTEMPO,PSC-UPTEMPO,Sikuliaq,North
2017-08-24T01:00:28Z,1503536429,2017,1,0,236.042,236.042,70.92155,-161.60515,1006.4,7.05,-999.0,yes,yes,no,300234065718420,UPTEMPO,PSC-UPTEMPO,Sikuliaq,North
2017-08-24T01:59:31Z,1503539971,2017,2,0,236.083,236.083,70.91887,-161.60568,1006.8,7.05,-999.0,yes,yes,no,300234065718420,UPTEMPO,PSC-UPTEMPO,Sikuliaq,North
2017-08-24T03:00:00Z,1503543600,2017,3,0,236.125,236.125,70.9166,-161.6087,1007.0,7.07,-999.0,yes,yes,no,300234065718420,UPTEMPO,PSC-UPTEMPO,Sikuliaq,North
2017-08-24T04:00:28Z,1503547229,2017,4,0,236.167,236.167,70.91477,-161.61188,1007.4,7.11,-999.0,yes,yes,no,300234065718420,UPTEMPO,PSC-UPTEMPO,Sikuliaq,North
2017-08-24T04:59:31Z,1503550771,2017,5,0,236.208,236.208,70.91318,-161.61507,1007.7,7.12,-999.0,yes,yes,no,300234065718420,UPTEMPO,PSC-UPTEMPO,Sikuliaq,North
2017-08-24T06:00:00Z,1503554400,2017,6,0,236.25,236.25,70.91183,-161.61789,1008.0,7.13,-999.0,yes,yes,no,300234065718420,UPTEMPO,PSC-UPTEMPO,Sikuliaq,North
2017-08-24T07:00:28Z,1503558029,2017,7,0,236.292,236.292,70.91022,-161.61957,1008.5,7.13,-999.0,yes,yes,no,300234065718420,UPTEMPO,PSC-UPTEMPO,Sikuliaq,North
2017-08-24T07:59:31Z,1503561571,2017,8,0,236.333,236.333,70.90803,-161.62192,1008.9,7.13,-999.0,yes,yes,no,300234065718420,UPTEMPO,PSC-UPTEMPO,Sikuliaq,North
2017-08-24T09:00:00Z,1503565200,2017,9,0,236.375,236.375,70.90584,-161.62505,1009.2,7.11,-999.0,yes,yes,no,300234065718420,UPTEMPO,PSC-UPTEMPO,Sikuliaq,North
2017-08-24T10:00:28Z,1503568829,2017,10,0,236.417,236.417,70.90312,-161.63002,1009.6,7.1,-999.0,yes,yes,no,300234065718420,UPTEMPO,PSC-UPTEMPO,Sikuliaq,North
2017-08-24T10:59:31Z,1503572371,2017,11,0,236.458,236.458,70.89993,-161.63663,1009.8,7.09,-999.0,yes,yes,no,300234065718420,UPTEMPO,PSC-UPTEMPO,Sikuliaq,North
2017-08-24T12:00:00Z,1503576000,2017,12,0,236.5,236.5,70.89648,-161.64458,1010.2,7.07,-999.0,yes,yes,no,300234065718420,UPTEMPO,PSC-UPTEMPO,Sikuliaq,North
2017-08-24T13:00:28Z,1503579629,2017,13,0,236.542,236.542,70.89315,-161.65414,1010.5,7.06,-999.0,yes,yes,no,300234065718420,UPTEMPO,PSC-UPTEMPO,Sikuliaq,North
2017-08-24T13:59:31Z,1503583171,2017,14,0,236.583,236.583,70.8899,-161.66527,1010.6,7.04,-999.0,yes,yes,no,300234065718420,UPTEMPO,PSC-UPTEMPO,Sikuliaq,North
2017-08-24T15:00:00Z,1503586800,2017,15,0,236.625,236.625,70.88693,-161.67595,1010.8,7.02,-999.0,yes,yes,no,300234065718420,UPTEMPO,PSC-UPTEMPO,Sikuliaq,North
2017-08-24T16:00:28Z,1503590429,2017,16,0,236.667,236.667,70.88399,-161.68578,1011.1,6.99,-999.0,yes,yes,no,300234065718420,UPTEMPO,PSC-UPTEMPO,Sikuliaq,North
2017-08-24T16:59:31Z,1503593971,2017,17,0,236.708,236.708,70.88163,-161.69431,1011.5,6.96,-999.0,yes,yes,no,300234065718420,UPTEMPO,PSC-UPTEMPO,Sikuliaq,North
2017-08-24T18:00:00Z,1503597600,2017,18,0,236.75,236.75,70.8797,-161.70102,1011.9,6.94,-999.0,yes,yes,no,300234065718420,UPTEMPO,PSC-UPTEMPO,Sikuliaq,North
2017-08-24T19:00:28Z,1503601229,2017,19,0,236.792,236.792,70.87769,-161.70625,1012.2,6.93,-999.0,yes,yes,no,300234065718420,UPTEMPO,PSC-UPTEMPO,Sikuliaq,North
2017-08-24T19:59:31Z,1503604771,2017,20,0,236.833,236.833,70.87547,-161.71037,1012.3,6.92,-999.0,yes,yes,no,300234065718420,UPTEMPO,PSC-UPTEMPO,Sikuliaq,North
2017-08-24T21:00:00Z,1503608400,2017,21,0,236.875,236.875,70.8735,-161.71431,1012.6,6.91,-999.0,yes,yes,no,300234065718420,UPTEMPO,PSC-UPTEMPO,Sikuliaq,North
2017-08-24T22:00:28Z,1503612029,2017,22,0,236.917,236.917,70.87093,-161.71756,1012.7,6.88,-999.0,yes,yes,no,300234065718420,UPTEMPO,PSC-UPTEMPO,Sikuliaq,North
2017-08-24T22:59:31Z,1503615571,2017,23,0,236.958,236.958,70.86795,-161.72139,1012.9,6.84,-999.0,yes,yes,no,300234065718420,UPTEMPO,PSC-UPTEMPO,Sikuliaq,North
2017-08-25T00:00:00Z,1503619200,2017,0,0,237.0,237.0,70.8647,-161.72708,1013.1,6.83,-999.0,yes,yes,no,300234065718420,UPTEMPO,PSC-UPTEMPO,Sikuliaq,North
2017-08-25T01:00:28Z,1503622829,2017,1,0,237.042,237.042,70.8613,-161.73309,1013.4,6.85,-999.0,yes,yes,no,300234065718420,UPTEMPO,PSC-UPTEMPO,Sikuliaq,North
2017-08-25T01:59:31Z,1503626371,2017,2,0,237.083,237.083,70.8577,-161.73944,1013.7,6.86,-999.0,yes,yes,no,300234065718420,UPTEMPO,PSC-UPTEMPO,Sikuliaq,North
2017-08-25T03:00:00Z,1503630000,2017,3,0,237.125,237.125,70.85388,-161.74587,1013.8,6.85,-999.0,yes,yes,no,300234065718420,UPTEMPO,PSC-UPTEMPO,Sikuliaq,North
2017-08-25T04:00:28Z,1503633629,2017,4,0,237.167,237.167,70.85027,-161.75383,1013.9,6.86,-999.0,yes,yes,no,300234065718420,UPTEMPO,PSC-UPTEMPO,Sikuliaq,North
2017-08-25T04:59:31Z,1503637171,2017,5,0,237.208,237.208,70.84718,-161.76207,1014.2,6.83,-999.0,yes,yes,no,300234065718420,UPTEMPO,PSC-UPTEMPO,Sikuliaq,North
2017-08-25T06:00:00Z,1503640800,2017,6,0,237.25,237.25,70.84425,-161.77023,1014.7,6.82,-999.0,yes,yes,no,300234065718420,UPTEMPO,PSC-UPTEMPO,Sikuliaq,North
2017-08-25T07:00:28Z,1503644429,2017,7,0,237.292,237.292,70.84158,-161.77823,1014.8,6.78,-999.0,yes,yes,no,300234065718420,UPTEMPO,PSC-UPTEMPO,Sikuliaq,North
2017-08-25T07:59:31Z,1503647971,2017,8,0,237.333,237.333,70.83881,-161.78523,1015.0,6.78,-999.0,yes,yes,no,300234065718420,UPTEMPO,PSC-UPTEMPO,Sikuliaq,North
2017-08-25T09:00:00Z,1503651600,2017,9,0,237.375,237.375,70.83573,-161.79311,1015.1,6.84,-999.0,yes,yes,no,300234065718420,UPTEMPO,PSC-UPTEMPO,Sikuliaq,North
2017-08-25T10:00:28Z,1503655229,2017,10,0,237.417,237.417,70.83282,-161.8019,1015.2,6.89,-999.0,yes,yes,no,300234065718420,UPTEMPO,PSC-UPTEMPO,Sikuliaq,North
2017-08-25T10:59:31Z,1503658771,2017,11,0,237.458,237.458,70.82983,-161.81168,1015.2,6.9,-999.0,yes,yes,no,300234065718420,UPTEMPO,PSC-UPTEMPO,Sikuliaq,North
2017-08-25T12:00:00Z,1503662400,2017,12,0,237.5,237.5,70.82655,-161.82411,1015.3,6.89,-999.0,yes,yes,no,300234065718420,UPTEMPO,PSC-UPTEMPO,Sikuliaq,North
2017-08-25T13:00:28Z,1503666029,2017,13,0,237.542,237.542,70.82257,-161.83852,1015.2,6.88,-999.0,yes,yes,no,300234065718420,UPTEMPO,PSC-UPTEMPO,Sikuliaq,North
2017-08-25T13:59:31Z,1503669571,2017,14,0,237.583,237.583,70.81848,-161.85446,1015.2,6.87,-999.0,yes,yes,no,300234065718420,UPTEMPO,PSC-UPTEMPO,Sikuliaq,North
2017-08-25T15:00:00Z,1503673200,2017,15,0,237.625,237.625,70.8151,-161.87315,1015.3,6.86,-999.0,yes,yes,no,300234065718420,UPTEMPO,PSC-UPTEMPO,Sikuliaq,North
2017-08-25T16:00:28Z,1503676829,2017,16,0,237.667,237.667,70.81175,-161.89136,1015.3,6.87,-999.0,yes,yes,no,300234065718420,UPTEMPO,PSC-UPTEMPO,Sikuliaq,North
2017-08-25T16:59:31Z,1503680371,2017,17,0,237.708,237.708,70.80887,-161.90916,1015.4,6.87,-999.0,yes,yes,no,300234065718420,UPTEMPO,PSC-UPTEMPO,Sikuliaq,North